Wind_Speed
4 4 4 3 3 3 2 1 1 3 4 6 7 7 8 9 9 9 10 10 10 10 11 10 10 9 9 9 9 10 10 10 10 10 10 10 10 10 10 10 10 10 10 10 10 10 10 10 11
5 4 3 3 3 2 1 1 2 3 4 6 7 9 9 9 10 10 10 11 11 11 11 11 11 10 10 10 10 11 11 11 11 11 11 11 11 11 11 11 11 11 11 11 11 11 11 11 12
5 4 3 2 2 2 1 2 3 4 5 7 8 9 9 10 11 12 12 12 12 12 12 12 12 11 11 11 12 12 12 11 11 12 12 11 12 12 12 12 12 12 12 12 12 12 12 13 13
5 4 3 2 2 2 2 3 4 5 7 8 9 9 10 10 12 13 13 14 13 13 13 13 13 12 12 12 12 12 12 12 12 12 12 12 12 13 13 13 13 13 13 13 14 13 14 14 14
4 3 3 3 4 4 4 5 6 6 7 8 9 10 11 11 12 13 14 14 14 13 13 13 14 14 13 13 14 13 13 13 13 13 13 13 14 14 14 14 15 15 15 15 15 15 15 15 15
5 4 4 5 6 6 6 7 7 7 9 9 10 11 12 12 13 14 14 15 15 15 15 14 14 14 14 15 14 14 14 14 13 14 14 14 15 15 15 16 16 17 16 16 16 16 16 16 16
6 5 6 7 6 7 7 8 8 8 9 10 11 11 12 13 14 15 15 16 16 16 16 15 15 15 15 15 15 15 15 15 15 15 16 16 16 16 16 16 17 17 17 18 17 17 18 17 17
5 5 6 7 6 7 7 8 8 9 10 11 11 12 13 13 14 15 16 17 17 17 17 16 16 16 16 15 16 16 16 16 16 16 17 17 17 18 18 18 18 18 19 19 19 18 18 18 18
4 5 7 7 6 7 7 8 8 10 11 11 12 13 14 15 15 15 16 17 18 18 19 18 17 17 16 16 17 17 17 18 18 17 18 18 19 19 19 19 19 19 20 20 20 20 19 19 19
5 5 6 6 6 7 8 8 9 10 11 12 13 14 16 16 16 16 17 18 18 19 19 19 18 18 18 18 19 19 19 19 19 19 20 20 20 20 20 20 19 20 20 20 20 21 21 20 20
6 6 7 7 7 8 8 9 10 10 11 13 14 16 17 16 16 18 18 19 19 20 20 20 19 20 20 20 20 20 21 21 21 21 21 21 22 22 21 21 20 20 20 20 20 21 21 21 21
8 7 8 8 8 9 9 9 11 12 13 14 16 17 19 19 19 19 20 21 22 22 22 21 20 20 21 21 21 21 22 22 22 21 22 22 22 22 22 22 21 21 21 21 21 21 22 22 22
8 8 8 8 9 10 10 11 13 14 15 17 18 19 20 21 21 21 22 23 24 24 23 23 23 22 22 22 22 23 23 23 23 23 23 23 23 24 23 22 22 23 23 22 22 23 23 23 23
8 8 9 10 10 11 12 13 14 15 17 18 19 20 20 21 21 22 23 24 25 25 24 23 23 24 24 24 24 24 25 24 24 24 24 24 25 25 24 24 24 23 24 24 23 24 24 23 23
8 8 10 11 12 12 14 15 16 17 18 19 19 19 20 21 22 22 24 25 25 24 24 24 25 26 26 26 25 25 25 24 24 25 25 26 26 26 25 25 24 24 24 24 25 24 24 23 23
8 8 10 12 13 14 15 17 18 19 19 19 19 20 20 21 22 23 23 24 25 25 25 25 25 27 27 27 27 28 28 27 27 26 25 26 26 26 26 25 24 25 24 25 25 24 25 24 24
8 8 11 14 15 16 16 18 20 20 20 20 20 20 20 21 22 23 24 25 26 25 26 26 26 27 28 28 29 29 28 28 28 27 27 26 27 26 27 26 25 25 25 26 26 26 25 24 24
11 11 13 15 17 17 18 19 20 20 20 21 21 20 21 22 23 24 25 26 26 26 26 26 26 27 28 28 28 27 27 27 27 27 26 27 27 27 27 27 26 26 26 26 27 26 26 25 25
12 13 15 17 17 18 18 19 20 20 21 21 21 22 22 24 25 26 26 27 27 27 27 27 27 28 28 28 27 27 27 27 27 27 26 26 26 27 28 27 27 26 26 26 26 26 26 26 26
13 14 16 17 18 18 18 19 20 20 21 21 22 23 24 25 26 26 27 27 27 28 28 28 28 28 29 28 27 26 26 26 27 26 26 26 27 28 27 27 27 27 27 26 25 25 25 25 26
15 16 16 17 18 19 19 20 21 21 22 22 23 23 23 24 25 26 26 27 28 28 29 29 29 30 30 29 28 27 27 27 26 26 26 26 27 27 28 26 26 26 26 26 25 25 25 25 25
15 16 17 18 19 19 19 20 22 22 23 23 23 24 24 25 26 26 27 27 28 28 29 29 29 28 28 28 28 28 27 27 27 27 27 26 26 27 26 26 26 25 25 25 25 25 25 24 25
16 16 17 18 19 19 20 20 21 22 23 23 24 24 25 26 26 26 27 27 28 28 28 28 28 28 27 27 28 27 27 27 27 27 27 26 26 26 25 24 24 25 25 25 25 25 25 25 25
17 17 18 19 19 20 21 21 21 23 23 24 24 25 26 26 27 28 28 28 28 28 28 28 28 27 27 27 27 27 27 26 26 25 25 25 25 24 23 23 23 24 25 25 25 24 25 25 26
18 17 17 18 19 20 23 23 24 24 24 24 25 26 26 26 27 27 28 28 28 28 28 28 27 27 27 27 26 26 26 26 25 25 25 25 24 24 23 22 22 22 22 22 23 23 24 25 25
18 18 18 19 21 21 23 24 24 24 25 25 26 26 27 27 27 27 28 28 29 29 29 28 27 26 26 26 26 26 26 26 25 25 25 24 23 23 22 22 22 21 21 21 22 23 24 24 24
18 18 19 20 22 22 22 25 25 25 26 26 26 27 27 28 28 28 28 29 29 29 29 28 27 27 27 27 27 26 26 25 25 24 24 22 21 21 21 21 20 19 20 21 21 22 22 22 23
18 18 19 19 20 21 22 24 25 26 26 26 26 27 28 28 28 28 28 28 28 28 28 27 28 28 27 27 26 26 25 24 24 23 22 21 20 20 19 20 19 18 19 19 20 20 21 21 22
19 19 19 19 20 21 22 24 26 26 27 27 27 28 28 28 28 28 28 28 28 28 28 27 27 26 26 26 26 26 24 23 23 22 21 20 19 19 19 19 18 18 18 19 20 21 21 21 22
18 19 20 20 20 21 23 25 27 27 28 28 28 28 28 28 28 28 28 28 28 28 27 27 26 26 26 26 25 24 22 22 21 21 20 20 20 20 19 19 19 18 18 19 20 20 21 21 22
Wind_Direction
164 162 162 159 117 112 120 101 31 19 7 8 6 5 6 2 356 347 347 343 344 342 342 342 339 336 330 328 323 320 319 318 318 316 314 312 309 306 304 300 299 299 297 293 290 287 285 281 278
172 176 176 167 125 144 162 324 337 354 351 354 354 354 354 351 350 343 339 340 339 337 339 339 339 334 329 325 320 316 316 315 314 313 313 312 307 304 302 296 295 295 293 290 286 283 280 278 276
178 184 190 162 159 188 261 321 322 324 330 340 345 344 341 340 340 338 337 335 335 334 334 333 333 330 325 320 316 313 312 310 309 308 309 308 305 301 298 294 293 292 289 286 283 279 276 277 275
184 186 195 175 216 255 293 308 314 318 321 327 333 337 336 336 337 338 336 336 333 332 332 329 326 322 319 316 311 307 308 308 306 304 305 304 301 301 298 293 292 291 288 286 284 280 277 277 276
193 195 199 214 247 268 286 304 312 316 318 318 321 326 329 331 333 335 336 335 330 329 330 327 324 318 314 310 307 306 305 303 304 302 301 301 299 297 296 292 289 288 288 286 283 280 278 276 276
207 209 205 232 259 276 289 299 302 306 308 311 315 318 320 322 325 327 327 329 326 324 322 321 320 317 313 310 306 306 305 301 300 301 300 299 297 295 295 292 291 289 288 286 283 281 280 277 278
224 222 236 247 260 274 284 294 301 301 300 306 311 311 315 317 318 319 321 322 320 317 316 315 314 312 309 307 305 305 304 301 300 299 298 297 296 293 293 292 292 289 289 288 285 280 277 276 276
232 236 252 260 264 267 280 293 301 301 299 305 306 307 309 314 313 313 316 317 315 313 312 310 311 308 307 307 306 306 305 302 301 299 297 297 297 294 292 291 291 287 286 287 285 282 279 275 275
240 242 251 253 259 264 275 292 298 306 310 310 308 308 308 309 310 311 314 314 313 311 310 310 307 306 306 305 306 305 305 304 302 298 295 297 295 294 291 291 289 288 285 283 283 282 279 277 274
245 246 253 260 262 270 277 288 296 304 309 309 308 309 310 310 307 308 311 310 310 309 308 308 305 305 305 304 304 303 302 303 300 297 295 295 294 295 293 291 289 289 286 282 281 280 280 279 275
256 260 267 276 278 274 277 287 295 300 302 305 306 308 310 309 308 309 308 307 308 307 307 306 306 305 304 303 302 301 301 301 300 296 294 292 294 293 289 290 289 288 285 281 281 280 280 279 277
261 270 273 283 286 281 281 291 294 296 299 302 304 306 309 307 306 305 305 305 304 303 304 304 301 300 299 299 298 299 299 298 296 294 293 291 292 292 290 289 288 287 284 280 280 280 281 280 277
262 274 280 289 292 289 290 294 296 296 298 300 302 305 308 307 305 304 305 305 303 302 300 301 301 298 297 297 296 296 296 296 294 291 292 292 291 290 287 289 288 286 284 280 279 279 280 279 276
265 277 288 292 292 291 295 298 296 295 297 298 301 303 305 305 304 303 304 304 303 303 302 300 298 297 295 293 293 294 294 292 289 289 289 289 289 288 288 289 288 286 285 279 280 280 279 278 277
269 286 296 297 297 298 302 303 303 301 299 299 300 301 303 303 303 303 302 302 302 301 301 300 297 296 295 294 290 292 293 291 289 288 286 286 288 287 287 287 286 286 285 281 280 279 278 276 275
282 294 298 297 298 299 300 300 302 301 302 300 299 300 301 302 303 304 304 304 304 304 303 301 300 298 298 297 294 292 294 292 289 287 286 286 286 287 286 286 286 288 284 282 282 280 277 274 272
289 291 289 295 298 298 296 295 299 301 302 300 300 301 301 302 304 305 305 305 306 306 304 302 302 300 300 298 297 294 293 291 290 286 289 287 285 284 284 284 285 285 285 282 281 280 277 275 273
279 284 288 292 295 296 296 298 300 301 300 300 301 302 302 302 304 305 306 306 305 305 305 304 302 301 301 299 296 294 293 291 290 290 289 286 285 285 283 283 285 285 284 282 281 279 275 273 271
280 284 287 289 291 293 296 298 300 301 301 301 302 303 303 303 303 305 306 306 305 304 304 303 302 301 302 300 297 294 292 292 292 289 288 286 285 284 282 282 283 284 284 283 281 278 274 271 271
284 287 290 291 292 295 297 299 300 300 302 304 305 304 303 304 307 310 309 307 306 304 303 303 301 300 301 301 301 296 295 294 293 293 290 288 286 286 283 281 282 283 283 284 283 279 276 274 273
288 289 291 293 297 300 302 303 302 301 303 305 305 307 308 309 310 310 310 308 306 305 303 301 300 300 299 299 300 299 296 297 294 292 291 289 289 288 286 283 284 283 282 283 283 279 277 276 276
290 290 292 294 301 304 304 303 302 305 305 306 308 309 309 309 310 310 310 310 308 306 303 302 302 301 300 301 300 299 298 299 296 293 293 292 290 290 289 286 285 283 282 282 282 279 276 275 275
290 291 294 297 301 303 303 304 303 306 308 308 308 309 310 309 310 310 310 310 308 307 305 303 303 303 303 302 301 299 298 298 296 295 292 289 289 288 288 287 285 284 283 282 281 278 276 276 276
296 297 298 303 308 306 304 305 305 308 310 310 310 310 310 309 309 309 309 310 309 307 306 305 304 304 304 304 301 300 299 297 297 296 293 290 289 287 286 285 286 285 284 283 282 279 277 278 278
300 302 304 304 303 302 303 304 304 307 309 309 309 309 310 310 310 309 309 309 308 308 308 306 305 305 306 305 303 302 300 299 297 296 293 291 289 287 286 285 285 285 285 287 285 280 278 278 279
299 299 298 298 300 300 302 305 306 307 309 309 309 310 311 311 310 309 308 308 307 308 309 307 307 306 306 306 305 303 302 302 299 295 293 291 289 287 285 285 285 285 285 286 285 281 279 279 280
303 302 302 303 305 307 307 308 309 311 311 310 309 310 310 311 311 311 311 311 309 308 308 309 309 308 305 305 304 303 303 303 301 299 296 295 291 287 286 288 288 288 288 287 287 284 281 279 280
307 308 308 308 308 308 308 309 309 311 311 311 311 311 311 312 313 313 313 312 312 312 311 309 307 306 306 305 306 305 305 304 304 302 299 297 292 289 291 292 290 289 290 289 290 291 287 284 284
312 312 311 309 307 308 308 306 308 309 310 311 312 312 312 313 314 313 313 313 313 312 310 309 308 306 306 305 305 306 306 306 304 300 298 297 296 293 292 293 294 293 292 290 291 291 287 286 287
311 312 314 312 311 311 310 309 310 309 310 311 313 313 313 314 314 314 314 313 312 310 308 309 309 308 308 307 306 306 307 305 304 302 299 297 296 294 295 294 296 295 293 294 294 291 288 288 290
Height
5904 5904 5906 5907 5909 5911 5911 5910 5909 5908 5907 5907 5905 5904 5903 5903 5902 5903 5899 5896 5895 5894 5892 5891 5890 5888 5887 5886 5885 5884 5883 5881 5880 5879 5878 5876 5875 5874 5873 5872 5872 5871 5871 5870 5870 5870 5870 5869 5869
5903 5904 5906 5907 5910 5912 5911 5909 5908 5908 5907 5906 5905 5903 5902 5901 5900 5898 5896 5895 5894 5892 5891 5889 5888 5887 5885 5884 5883 5882 5880 5879 5878 5876 5875 5874 5873 5872 5871 5870 5869 5869 5868 5868 5867 5867 5867 5866 5866
5902 5904 5906 5907 5909 5911 5910 5908 5907 5906 5906 5905 5904 5903 5902 5900 5898 5896 5895 5893 5892 5890 5889 5887 5886 5885 5883 5882 5881 5880 5878 5877 5875 5874 5873 5872 5871 5870 5868 5867 5867 5866 5865 5864 5864 5864 5863 5863 5863
5902 5904 5906 5908 5908 5908 5908 5907 5906 5905 5904 5903 5903 5902 5900 5899 5897 5895 5893 5892 5890 5889 5887 5885 5884 5883 5881 5880 5879 5877 5875 5874 5873 5871 5870 5869 5868 5867 5866 5865 5864 5863 5862 5861 5861 5860 5860 5860 5859
5902 5904 5906 5907 5907 5907 5906 5906 5905 5904 5903 5902 5901 5900 5898 5897 5895 5894 5892 5890 5889 5887 5885 5883 5882 5880 5879 5877 5876 5874 5873 5872 5870 5869 5868 5866 5865 5864 5863 5861 5861 5860 5859 5858 5857 5856 5856 5856 5855
5902 5904 5907 5907 5906 5906 5905 5904 5903 5903 5902 5900 5899 5898 5897 5895 5894 5892 5890 5889 5887 5885 5883 5881 5879 5877 5876 5874 5873 5871 5870 5869 5868 5866 5865 5863 5862 5860 5859 5858 5857 5856 5855 5854 5853 5853 5852 5851 5851
5902 5904 5905 5905 5905 5904 5904 5902 5902 5901 5900 5899 5897 5897 5895 5893 5892 5890 5888 5887 5884 5882 5880 5878 5876 5874 5873 5871 5869 5868 5867 5865 5864 5863 5861 5859 5858 5856 5855 5854 5853 5852 5851 5850 5849 5848 5847 5847 5846
5901 5903 5903 5903 5903 5903 5902 5901 5900 5899 5897 5897 5896 5895 5893 5891 5889 5888 5886 5884 5882 5880 5878 5876 5873 5871 5870 5868 5866 5865 5863 5861 5860 5859 5857 5855 5854 5852 5851 5850 5849 5848 5847 5846 5845 5844 5843 5842 5842
5900 5903 5902 5902 5901 5901 5900 5899 5898 5897 5896 5895 5893 5892 5891 5889 5887 5885 5883 5881 5880 5877 5875 5873 5870 5868 5867 5865 5863 5861 5859 5857 5856 5854 5852 5851 5850 5848 5847 5846 5844 5843 5842 5841 5840 5839 5838 5837 5837
5899 5901 5900 5900 5899 5899 5898 5897 5896 5895 5894 5893 5891 5890 5888 5885 5884 5882 5880 5879 5877 5874 5872 5869 5867 5865 5863 5861 5859 5857 5855 5853 5851 5850 5848 5846 5845 5844 5842 5841 5840 5838 5837 5836 5835 5834 5833 5832 5832
5898 5899 5898 5898 5898 5897 5897 5896 5894 5893 5892 5890 5889 5887 5885 5882 5880 5879 5877 5875 5873 5871 5868 5866 5863 5861 5859 5857 5855 5853 5851 5849 5847 5846 5844 5842 5840 5839 5838 5836 5835 5833 5832 5831 5829 5828 5828 5827 5826
5897 5896 5896 5896 5896 5896 5895 5894 5893 5891 5890 5888 5886 5884 5881 5879 5877 5875 5873 5872 5869 5867 5864 5861 5859 5857 5854 5852 5850 5848 5846 5844 5842 5841 5839 5837 5836 5834 5833 5831 5830 5828 5826 5825 5824 5824 5823 5822 5821
5895 5895 5895 5895 5894 5893 5893 5892 5890 5888 5887 5885 5882 5880 5878 5875 5873 5871 5869 5867 5865 5862 5859 5857 5855 5852 5850 5847 5845 5843 5841 5839 5837 5835 5834 5832 5831 5829 5827 5825 5825 5823 5821 5820 5819 5818 5817 5816 5816
5894 5893 5893 5893 5892 5891 5890 5889 5888 5886 5884 5882 5879 5877 5874 5872 5869 5867 5865 5862 5860 5857 5854 5852 5849 5847 5844 5842 5839 5837 5835 5833 5831 5829 5828 5827 5825 5824 5821 5820 5819 5818 5816 5816 5814 5813 5812 5811 5810
5892 5893 5892 5891 5890 5889 5888 5887 5885 5883 5880 5878 5876 5874 5871 5868 5866 5863 5860 5858 5855 5851 5849 5846 5844 5841 5839 5836 5833 5831 5829 5827 5825 5823 5822 5820 5819 5818 5816 5814 5812 5812 5811 5810 5808 5807 5805 5805 5804
5891 5892 5891 5889 5888 5887 5887 5884 5882 5879 5877 5875 5872 5870 5867 5864 5861 5859 5856 5852 5849 5846 5843 5841 5838 5835 5833 5830 5827 5825 5823 5821 5819 5817 5816 5814 5813 5811 5809 5808 5807 5805 5804 5804 5802 5801 5800 5799 5798
5891 5891 5890 5888 5885 5884 5883 5881 5878 5876 5873 5871 5869 5866 5863 5860 5857 5854 5851 5848 5844 5841 5838 5835 5833 5829 5827 5824 5821 5819 5816 5814 5812 5811 5809 5808 5806 5805 5803 5802 5801 5799 5798 5797 5796 5795 5794 5793 5792
5890 5889 5887 5885 5883 5881 5879 5877 5874 5872 5869 5867 5865 5862 5859 5856 5853 5849 5846 5842 5839 5836 5832 5829 5827 5824 5821 5818 5815 5812 5810 5808 5806 5805 5803 5802 5800 5798 5797 5795 5794 5793 5791 5790 5789 5788 5787 5786 5786
5886 5886 5884 5882 5880 5878 5876 5873 5871 5868 5865 5863 5860 5858 5854 5851 5848 5844 5841 5837 5834 5830 5827 5824 5821 5818 5815 5812 5809 5807 5804 5802 5800 5798 5797 5796 5794 5792 5790 5789 5787 5786 5784 5783 5781 5781 5780 5780 5780
5883 5882 5881 5879 5876 5874 5872 5869 5866 5864 5861 5858 5855 5853 5850 5846 5842 5839 5835 5832 5828 5825 5821 5818 5815 5812 5809 5806 5803 5801 5798 5796 5794 5792 5790 5788 5787 5785 5783 5782 5780 5779 5778 5776 5775 5774 5773 5773 5773
5880 5879 5877 5875 5873 5870 5868 5866 5862 5860 5857 5854 5851 5847 5844 5841 5837 5834 5830 5826 5822 5819 5815 5812 5809 5806 5803 5800 5797 5794 5792 5790 5787 5785 5783 5781 5780 5778 5776 5775 5773 5772 5771 5769 5768 5767 5766 5766 5766
5877 5875 5873 5871 5869 5868 5865 5863 5859 5855 5852 5849 5846 5843 5839 5836 5832 5828 5825 5821 5817 5813 5809 5806 5802 5799 5796 5793 5790 5788 5786 5783 5781 5779 5777 5774 5773 5771 5770 5768 5767 5765 5764 5763 5762 5761 5760 5760 5759
5873 5871 5870 5867 5865 5863 5861 5859 5856 5851 5848 5845 5841 5838 5834 5831 5827 5823 5819 5815 5811 5807 5803 5799 5796 5793 5790 5787 5784 5782 5779 5777 5774 5772 5770 5768 5766 5764 5763 5761 5760 5759 5757 5756 5755 5754 5754 5753 5753
5869 5867 5865 5863 5862 5860 5857 5855 5852 5847 5843 5840 5836 5833 5829 5825 5821 5817 5813 5809 5805 5801 5797 5793 5789 5786 5783 5780 5777 5775 5773 5770 5768 5765 5763 5761 5759 5758 5756 5755 5754 5752 5751 5750 5749 5748 5747 5746 5745
5865 5864 5863 5861 5859 5857 5852 5849 5847 5842 5838 5835 5831 5827 5824 5819 5815 5811 5807 5803 5799 5795 5791 5786 5782 5779 5776 5773 5771 5768 5766 5763 5761 5759 5756 5754 5753 5751 5750 5748 5747 5745 5744 5743 5742 5741 5740 5739 5738
5861 5860 5859 5857 5855 5852 5848 5844 5841 5837 5833 5829 5825 5821 5818 5814 5810 5805 5801 5797 5793 5789 5784 5780 5776 5773 5770 5767 5764 5762 5759 5756 5754 5752 5749 5747 5746 5744 5743 5742 5741 5739 5738 5737 5735 5734 5733 5732 5731
5856 5855 5853 5851 5848 5845 5843 5838 5834 5831 5827 5823 5820 5816 5812 5808 5804 5800 5795 5791 5787 5783 5778 5774 5770 5767 5764 5761 5758 5755 5752 5750 5747 5745 5743 5740 5739 5738 5737 5736 5735 5733 5732 5731 5729 5728 5727 5726 5725
5853 5850 5848 5845 5843 5841 5839 5834 5830 5825 5822 5819 5814 5810 5806 5802 5798 5794 5790 5785 5781 5777 5773 5769 5765 5761 5757 5754 5751 5749 5746 5743 5741 5739 5737 5735 5733 5732 5731 5731 5729 5727 5726 5725 5723 5722 5721 5720 5718
5848 5845 5843 5841 5838 5836 5833 5832 5825 5821 5817 5813 5809 5805 5801 5797 5793 5788 5784 5780 5775 5771 5767 5763 5759 5755 5751 5748 5745 5742 5740 5738 5736 5733 5732 5730 5729 5727 5726 5725 5723 5722 5721 5719 5718 5716 5715 5714 5712
5844 5841 5839 5837 5834 5830 5827 5827 5819 5815 5811 5807 5803 5799 5795 5791 5787 5783 5779 5774 5770 5766 5761 5757 5753 5749 5745 5742 5739 5737 5734 5732 5730 5728 5727 5725 5724 5722 5721 5719 5718 5716 5715 5714 5712 5710 5709 5707 5706